Humidity-temperature Sensor

Selected Measurement Type: Air Temperature

 
Air Temperature [°C]     6 entries per hour
Showing data from 7/30/2018 (00:00:00 Z) to 7/23/2018 (00:01:00 Z)
Previous Next [ Day | 3-Days | 7-Days ]
First Last
Prev [ Day | 3-Days | 7-Days ] Next
First Last

Start Time:     :
End Time:     :     
Time (in GMT) :00 :50 :40 :30 :20 :10
Previous Next [ Day | 3-Days | 7-Days ]
First Last
Prev [ Day | 3-Days | 7-Days ] Next
First Last


123 => good data
MM => data is determined as missing
-- => data not received/configured
Back to Top Back to Top
7/30/2018 00:00 to 23:10 28.66 28.74 28.84 28.51 28.63 28.65
7/29/2018 23:00 to 22:10 28.64 28.70 28.69 28.51 28.58 28.52
7/29/2018 22:00 to 21:10 28.42 28.34 28.31 28.15 28.40 28.39
7/29/2018 21:00 to 20:10 28.16 28.25 28.30 28.45 28.64 28.66
7/29/2018 20:00 to 19:10 28.55 28.46 28.47 28.46 28.39 28.37
7/29/2018 19:00 to 18:10 28.35 28.37 28.39 28.34 28.27 28.30
7/29/2018 18:00 to 17:10 28.33 28.29 28.28 28.11 28.13 28.22
7/29/2018 17:00 to 16:10 28.11 28.19 28.03 28.11 28.08 28.07
7/29/2018 16:00 to 15:10 -- -- -- -- -- --
7/29/2018 15:00 to 14:10 28.07 28.10 28.01 28.04 28.05 28.09
7/29/2018 14:00 to 13:10 28.05 28.09 28.15 28.23 28.34 28.33
7/29/2018 13:00 to 12:10 28.20 28.16 28.30 28.28 28.26 28.08
7/29/2018 12:00 to 11:10 28.06 27.92 27.83 27.76 28.01 28.22
7/29/2018 11:00 to 10:10 28.40 28.31 28.40 28.42 28.45 28.47
7/29/2018 10:00 to 9:10 28.41 28.36 28.43 28.38 28.49 28.49
7/29/2018 09:00 to 8:10 28.50 28.40 28.43 28.42 28.48 28.50
7/29/2018 08:00 to 7:10 28.47 28.38 28.42 28.42 28.52 28.50
7/29/2018 07:00 to 6:10 28.64 28.50 28.18 28.34 28.31 28.28
7/29/2018 06:00 to 5:10 28.30 28.20 28.22 28.05 28.08 28.06
7/29/2018 05:00 to 4:10 28.11 27.97 27.94 28.09 28.49 28.46
7/29/2018 04:00 to 3:10 28.59 28.56 28.66 28.56 28.61 28.64
7/29/2018 03:00 to 2:10 28.68 28.65 28.60 28.57 28.59 28.41
7/29/2018 02:00 to 1:10 28.44 28.36 28.41 28.40 28.37 28.47
7/29/2018 01:00 to 0:10 28.48 28.45 28.35 28.41 28.43 28.44
7/29/2018 00:00 to 23:10 28.46 28.26 28.34 28.34 28.34 28.22
7/28/2018 23:00 to 22:10 28.34 28.23 28.17 28.13 28.14 28.08
7/28/2018 22:00 to 21:10 28.03 27.93 27.93 27.92 27.79 27.64
7/28/2018 21:00 to 20:10 27.61 27.67 27.60 27.58 27.49 27.54
7/28/2018 20:00 to 19:10 27.35 27.36 27.41 27.35 27.32 27.28
7/28/2018 19:00 to 18:10 27.25 27.17 27.22 27.20 27.15 27.14
7/28/2018 18:00 to 17:10 27.06 27.08 26.96 26.94 26.78 26.90
7/28/2018 17:00 to 16:10 26.83 26.79 26.73 26.66 26.63 26.39
7/28/2018 16:00 to 15:10 26.78 26.51 26.44 26.34 26.31 26.33
7/28/2018 15:00 to 14:10 26.28 26.25 26.27 26.12 26.00 25.93
7/28/2018 14:00 to 13:10 25.95 25.91 25.80 25.94 25.93 25.90
7/28/2018 13:00 to 12:10 26.20 26.03 26.26 26.25 26.19 26.46
7/28/2018 12:00 to 11:10 26.19 26.05 26.07 26.15 25.91 26.18
7/28/2018 11:00 to 10:10 26.03 25.90 25.91 26.07 26.04 25.71
7/28/2018 10:00 to 9:10 25.66 25.68 25.70 25.68 25.73 25.59
7/28/2018 09:00 to 8:10 25.90 25.70 25.48 25.46 25.42 25.67
7/28/2018 08:00 to 7:10 25.66 25.69 25.78 25.90 25.74 25.83
7/28/2018 07:00 to 6:10 25.62 25.77 25.74 25.99 26.14 26.68
7/28/2018 06:00 to 5:10 27.09 27.09 26.74 26.66 26.14 26.42
7/28/2018 05:00 to 4:10 26.36 26.60 26.45 26.72 26.79 26.95
7/28/2018 04:00 to 3:10 26.34 26.30 26.59 26.64 26.30 26.89
7/28/2018 03:00 to 2:10 28.26 28.47 28.49 28.61 28.67 28.62
7/28/2018 02:00 to 1:10 28.50 28.43 28.65 28.56 28.61 28.44
7/28/2018 01:00 to 0:10 28.67 28.80 28.86 29.01 28.90 28.90
7/28/2018 00:00 to 23:10 28.71 28.77 28.74 28.60 28.55 28.67
7/27/2018 23:00 to 22:10 28.54 28.42 28.54 28.29 27.84 27.22
7/27/2018 22:00 to 21:10 26.96 26.88 28.26 27.92 27.87 27.68
7/27/2018 21:00 to 20:10 27.59 27.56 27.47 27.11 26.96 26.90
7/27/2018 20:00 to 19:10 26.73 27.51 28.15 28.31 28.35 28.37
7/27/2018 19:00 to 18:10 28.40 28.05 28.00 27.94 27.98 27.94
7/27/2018 18:00 to 17:10 27.80 27.80 27.53 27.61 27.22 26.69
7/27/2018 17:00 to 16:10 27.11 27.53 27.47 27.41 27.44 27.39
7/27/2018 16:00 to 15:10 27.36 27.25 27.24 27.13 27.19 26.90
7/27/2018 15:00 to 14:10 26.80 26.71 26.54 26.38 26.33 26.10
7/27/2018 14:00 to 13:10 27.43 27.54 27.60 27.45 27.47 27.35
7/27/2018 13:00 to 12:10 27.33 27.15 27.18 26.94 27.07 27.30
7/27/2018 12:00 to 11:10 27.36 27.39 27.31 27.27 27.32 27.17
7/27/2018 11:00 to 10:10 27.12 26.73 26.79 26.59 26.38 26.10
7/27/2018 10:00 to 9:10 26.25 26.70 27.10 27.80 28.04 27.71
7/27/2018 09:00 to 8:10 27.97 27.90 27.73 27.79 28.08 27.67
7/27/2018 08:00 to 7:10 27.88 28.00 28.45 28.67 28.69 28.75
7/27/2018 07:00 to 6:10 28.75 28.59 28.52 28.53 28.51 28.53
7/27/2018 06:00 to 5:10 28.65 28.63 28.58 28.69 28.86 28.89
7/27/2018 05:00 to 4:10 28.87 28.95 28.93 28.84 28.90 28.97
7/27/2018 04:00 to 3:10 29.04 29.13 29.11 28.96 28.88 28.93
7/27/2018 03:00 to 2:10 28.87 28.89 28.79 28.83 28.69 28.64
7/27/2018 02:00 to 1:10 28.80 28.73 28.91 29.03 28.92 28.71
7/27/2018 01:00 to 0:10 28.78 28.63 28.66 28.72 28.90 28.79
7/27/2018 00:00 to 23:10 28.76 28.81 28.79 28.59 28.56 28.62
7/26/2018 23:00 to 22:10 28.70 28.58 28.55 28.62 28.53 28.53
7/26/2018 22:00 to 21:10 28.44 28.57 28.61 28.50 28.48 28.39
7/26/2018 21:00 to 20:10 28.48 28.67 28.46 28.55 28.47 28.36
7/26/2018 20:00 to 19:10 28.31 28.48 28.50 28.46 28.53 28.29
7/26/2018 19:00 to 18:10 28.48 28.42 28.45 28.39 28.48 28.35
7/26/2018 18:00 to 17:10 28.23 28.25 28.03 27.93 27.99 27.95
7/26/2018 17:00 to 16:10 28.02 28.12 28.02 28.10 28.12 28.01
7/26/2018 16:00 to 15:10 27.97 27.98 27.84 27.94 28.04 27.96
7/26/2018 15:00 to 14:10 28.00 28.01 28.07 27.90 27.95 28.11
7/26/2018 14:00 to 13:10 28.04 28.07 28.00 28.20 28.21 28.21
7/26/2018 13:00 to 12:10 28.30 28.27 28.31 28.19 28.24 28.18
7/26/2018 12:00 to 11:10 28.19 28.21 28.28 28.38 28.28 28.30
7/26/2018 11:00 to 10:10 28.32 28.24 28.47 28.49 28.38 28.41
7/26/2018 10:00 to 9:10 28.44 28.49 28.53 28.55 28.52 28.46
7/26/2018 09:00 to 8:10 28.49 28.49 28.54 28.45 28.62 28.68
7/26/2018 08:00 to 7:10 28.67 28.59 28.56 28.48 28.58 28.55
7/26/2018 07:00 to 6:10 28.48 28.64 28.58 28.69 28.70 28.74
7/26/2018 06:00 to 5:10 28.62 28.62 28.74 28.65 28.85 28.85
7/26/2018 05:00 to 4:10 29.34 29.10 29.44 29.91 29.90 30.00
7/26/2018 04:00 to 3:10 30.08 29.79 30.07 29.70 29.55 29.16
7/26/2018 03:00 to 2:10 29.16 29.45 29.40 29.19 29.41 29.22
7/26/2018 02:00 to 1:10 29.11 29.15 28.99 29.09 28.90 29.10
7/26/2018 01:00 to 0:10 29.12 28.92 28.99 28.96 28.66 28.83
7/26/2018 00:00 to 23:10 28.84 28.67 28.80 28.72 28.72 28.69
7/25/2018 23:00 to 22:10 28.74 28.79 28.35 28.10 28.40 28.38
7/25/2018 22:00 to 21:10 28.20 27.95 28.93 28.83 28.85 28.83
7/25/2018 21:00 to 20:10 28.84 28.80 28.70 28.71 29.04 28.93
7/25/2018 20:00 to 19:10 28.94 28.99 28.84 28.78 28.94 28.79
7/25/2018 19:00 to 18:10 28.76 28.64 28.61 28.78 28.58 28.40
7/25/2018 18:00 to 17:10 28.45 28.53 28.48 28.45 28.28 28.30
7/25/2018 17:00 to 16:10 28.26 28.15 28.12 28.27 28.39 28.20
7/25/2018 16:00 to 15:10 28.17 28.26 28.21 28.28 28.14 28.37
7/25/2018 15:00 to 14:10 28.18 28.16 28.28 28.27 28.18 28.26
7/25/2018 14:00 to 13:10 28.31 28.38 28.31 28.44 28.37 28.31
7/25/2018 13:00 to 12:10 28.53 28.51 28.41 28.42 28.47 28.44
7/25/2018 12:00 to 11:10 28.39 28.44 28.45 28.33 28.37 28.42
7/25/2018 11:00 to 10:10 28.45 28.45 28.52 28.37 28.46 28.37
7/25/2018 10:00 to 9:10 28.52 28.47 28.31 28.46 28.44 28.45
7/25/2018 09:00 to 8:10 28.47 28.39 28.45 28.40 28.52 28.45
7/25/2018 08:00 to 7:10 28.55 28.42 28.55 28.53 28.53 28.82
7/25/2018 07:00 to 6:10 28.51 28.52 28.59 28.51 28.44 28.58
7/25/2018 06:00 to 5:10 28.49 28.41 28.33 28.42 28.41 28.54
7/25/2018 05:00 to 4:10 28.58 28.72 28.72 28.71 28.90 28.84
7/25/2018 04:00 to 3:10 28.82 29.19 29.00 29.09 29.07 29.16
7/25/2018 03:00 to 2:10 29.30 29.03 29.03 28.91 29.00 28.83
7/25/2018 02:00 to 1:10 28.86 28.99 28.91 28.70 28.71 28.70
7/25/2018 01:00 to 0:10 28.68 28.79 28.57 28.68 28.48 28.62
7/25/2018 00:00 to 23:10 28.59 28.63 28.89 28.84 28.72 28.66
7/24/2018 23:00 to 22:10 28.82 28.77 28.69 28.58 28.52 28.59
7/24/2018 22:00 to 21:10 28.49 28.60 28.45 28.51 28.50 28.37
7/24/2018 21:00 to 20:10 28.15 28.24 28.33 28.20 28.26 28.23
7/24/2018 20:00 to 19:10 28.25 28.37 28.36 28.33 28.44 28.35
7/24/2018 19:00 to 18:10 28.23 28.33 28.31 28.20 28.15 28.12
7/24/2018 18:00 to 17:10 28.17 28.03 28.00 28.03 27.88 28.02
7/24/2018 17:00 to 16:10 27.92 27.84 27.88 27.85 27.97 27.88
7/24/2018 16:00 to 15:10 27.89 27.85 27.77 27.74 27.86 27.96
7/24/2018 15:00 to 14:10 27.86 27.81 27.65 27.68 27.72 27.73
7/24/2018 14:00 to 13:10 27.55 27.65 27.60 27.54 27.60 27.58
7/24/2018 13:00 to 12:10 27.54 27.53 27.47 27.59 27.57 27.69
7/24/2018 12:00 to 11:10 27.62 27.76 27.77 27.74 27.64 27.57
7/24/2018 11:00 to 10:10 27.60 27.82 27.72 27.69 27.71 27.52
7/24/2018 10:00 to 9:10 27.55 27.51 27.52 27.47 27.40 27.36
7/24/2018 09:00 to 8:10 27.36 27.24 27.15 27.28 27.11 27.19
7/24/2018 08:00 to 7:10 26.93 26.88 26.81 26.92 26.74 26.73
7/24/2018 07:00 to 6:10 26.81 26.80 26.71 26.65 26.63 26.77
7/24/2018 06:00 to 5:10 26.72 26.59 26.43 26.47 26.46 26.49
7/24/2018 05:00 to 4:10 26.28 26.22 26.15 26.40 26.55 26.36
7/24/2018 04:00 to 3:10 26.16 26.23 26.04 25.96 26.59 26.61
7/24/2018 03:00 to 2:10 26.48 26.50 26.34 26.40 26.33 26.35
7/24/2018 02:00 to 1:10 26.16 26.38 26.63 26.83 26.78 26.80
7/24/2018 01:00 to 0:10 26.79 26.74 26.71 26.76 26.78 26.88
7/24/2018 00:00 to 23:10 26.94 26.84 26.62 26.68 26.72 26.57
7/23/2018 23:00 to 22:10 26.65 26.62 26.65 26.76 26.65 26.59
7/23/2018 22:00 to 21:10 26.57 26.52 26.54 26.21 26.27 26.21
7/23/2018 21:00 to 20:10 25.94 25.88 26.11 25.89 25.60 25.54
7/23/2018 20:00 to 19:10 25.67 25.72 25.57 25.60 25.66 25.63
7/23/2018 19:00 to 18:10 25.25 25.51 25.41 25.39 25.41 25.32
7/23/2018 18:00 to 17:10 25.85 26.00 26.21 26.50 26.84 26.88
7/23/2018 17:00 to 16:10 27.02 26.79 26.99 27.54 27.74 27.70
7/23/2018 16:00 to 15:10 27.69 27.61 27.78 27.60 27.75 27.61
7/23/2018 15:00 to 14:10 27.63 27.98 28.06 28.31 28.27 28.34
7/23/2018 14:00 to 13:10 28.29 28.29 28.10 28.21 28.28 28.32
7/23/2018 13:00 to 12:10 28.26 28.25 28.28 28.19 28.28 28.22
7/23/2018 12:00 to 11:10 28.26 28.24 28.41 28.44 28.32 28.30
7/23/2018 11:00 to 10:10 28.44 28.48 28.56 28.55 28.58 28.54
7/23/2018 10:00 to 9:10 28.64 28.65 28.50 28.50 28.57 28.75
7/23/2018 09:00 to 8:10 28.61 28.63 28.73 28.71 28.81 28.76
7/23/2018 08:00 to 7:10 28.63 28.69 28.75 28.78 28.71 28.58
7/23/2018 07:00 to 6:10 28.76 28.69 28.75 28.67 28.60 28.63
7/23/2018 06:00 to 5:10 28.71 28.59 28.66 28.62 29.10 28.90
7/23/2018 05:00 to 4:10 29.18 29.45 29.54 29.60 29.64 29.18
7/23/2018 04:00 to 3:10 29.26 29.09 29.50 29.50 29.71 29.59
7/23/2018 03:00 to 2:10 29.53 29.50 29.25 28.98 29.23 29.02
7/23/2018 02:00 to 1:10 29.01 28.81 28.87 28.89 28.94 29.46
7/23/2018 01:00 to 0:10 29.22 29.40 29.37 29.13 28.69 28.90